Weather in Lipna

Russia / Vladimir Oblast     55°57′26″N   39°38′14″E
temp.,
°C
wind,
m/s
gust,
m/s
humid.,
%
clouds,
%
prec.,
mm/h
press.,
hPa
HPBL,
m
14 august, sun
sun1400:00+18ene117095 0.0 102112
03:00+16ese118141 0.0 102111
06:00+17e118293 0.0 102117
09:00+22ese2361100 0.0 1021374
12:00+26se2344100 0.0 10211601
15:00+27ese3241100 0.0 10202155
18:00+25e2454100 0.0 1020175
21:00+20e2365100 0.0 102034
15 august, mon
mon1500:00+18e2567100 0.0 102185
03:00+17ese2474100 0.0 102174
06:00+18ese2476100 0.0 102291
09:00+23ese3454100 0.0 1022452
12:00+27ese3541100 0.0 10221600
15:00+27ese453673 0.0 10211968
18:00+26e36429 0.0 1021287
21:00+19e396037 0.0 1022178
16 august, tue
tue1600:00+17e3106858 0.0 1023217
03:00+16e297517 0.0 1023174
06:00+16ese287711 0.0 1024174
09:00+23se375075 0.0 1024608
12:00+27se464098 0.0 10231879
15:00+28ese453519 0.0 10212320
18:00+26ese3743100 0.0 1021426
21:00+21e4115695 0.0 1022338
17 august, wed
wed1700:00+17e39730 0.0 1022185
03:00+16ene38781 0.0 1021152
06:00+16ene39744 0.0 1021219
09:00+23e47485 0.0 1020549
12:00+28ese46341 0.0 10191411
15:00+30ese45280 0.0 10182244
18:00+28e4739100 0.0 1018370
21:00+22e4125611 0.0 1019339
18 august, thu
thu1800:00+18e39675 0.0 1019174
03:00+17ene257517 0.0 102095
06:00+16ene267722 0.0 1021144
09:00+23e46490 0.0 1021550
12:00+27e46360 0.0 10201794
15:00+28e56280 0.0 10202204
18:00+26e48370 0.0 1020793
21:00+21e413534 0.0 1021400